Wind_Speed
11 12 11 10 13 13 14 15 15 16 16 17 17 16 16 18 19 20 18 14 17 16 13 11 8 6 1 2 6 3 3 1 3 5 6 3 4 2 1 3 3 3 3 3 5 8 7
9 9 9 13 14 14 15 16 16 17 17 18 17 17 17 18 19 20 19 16 18 17 12 7 5 3 1 2 1 4 3 1 3 4 5 5 2 1 1 2 0 3 5 8 8 5 5
7 11 13 13 13 15 16 16 17 18 18 18 18 18 18 19 19 21 20 17 18 12 7 3 1 1 1 7 2 4 3 1 2 2 2 4 3 3 1 3 3 2 5 7 5 3 5
9 11 12 13 14 15 16 16 17 18 19 19 19 18 18 18 19 20 19 19 17 6 4 1 2 2 5 3 4 6 6 3 1 3 3 2 2 2 2 4 4 2 2 3 3 6 2
8 10 12 13 13 14 15 17 18 19 20 20 20 19 19 18 18 20 19 20 7 2 1 3 2 1 6 1 4 8 7 1 3 1 2 2 2 2 1 2 3 2 4 4 7 8 3
10 11 11 12 13 14 16 17 19 20 21 22 22 21 20 19 17 17 18 13 2 2 2 1 1 2 2 2 2 2 7 3 1 1 3 2 3 2 2 3 5 5 4 5 6 2 4
11 11 12 13 14 15 17 18 19 21 22 23 23 20 19 18 15 11 14 3 5 3 1 5 1 2 3 2 3 2 3 3 1 2 1 1 2 7 9 8 4 2 3 7 4 6 5
10 11 12 13 15 16 18 19 20 21 22 24 23 21 19 17 13 8 7 5 2 2 6 4 6 5 5 3 1 2 6 3 2 3 2 3 7 7 4 5 6 5 4 8 7 4 6
11 12 13 14 16 17 19 20 21 23 24 25 24 20 17 14 3 6 11 7 5 4 2 5 2 2 1 5 3 3 8 3 4 3 5 6 5 4 3 3 3 4 6 5 8 3 4
11 12 13 15 17 18 20 22 24 25 26 28 23 19 15 9 4 3 4 7 5 3 4 3 1 1 1 3 1 1 11 3 3 5 4 6 5 6 6 9 8 6 7 8 4 2 4
11 12 14 16 17 19 21 23 25 27 28 29 20 15 9 9 3 4 5 7 4 2 4 2 1 1 1 2 2 3 4 2 5 3 3 8 3 5 6 8 8 9 4 6 4 4 2
11 12 14 16 18 20 23 25 27 28 30 25 14 11 6 5 4 3 7 6 2 6 4 1 1 2 1 2 2 2 1 2 1 3 3 9 4 4 8 5 7 2 2 2 3 4 1
11 13 15 17 19 22 23 25 27 28 30 18 9 8 9 6 5 10 6 2 5 4 4 5 2 2 3 4 4 6 5 4 4 2 3 4 5 4 3 1 1 2 4 3 3 1 6
11 13 15 18 20 22 24 26 28 29 29 13 4 5 8 11 9 6 1 5 2 3 2 4 6 7 5 3 3 3 2 3 7 3 1 2 10 5 3 6 5 6 6 5 6 3 4
11 13 16 17 20 22 25 27 29 30 26 13 1 3 6 13 9 3 5 4 4 1 3 7 8 4 4 2 4 4 4 5 4 8 7 4 7 2 4 3 5 3 5 2 2 2 2
11 13 14 17 20 22 25 27 29 30 24 11 2 1 9 13 9 4 4 2 1 4 4 3 2 2 3 6 7 7 3 2 2 2 1 4 5 5 3 1 4 5 2 1 1 3 6
11 12 14 17 20 23 26 28 29 30 25 7 3 3 10 13 5 4 3 3 2 3 6 4 3 5 4 4 4 4 6 4 6 7 4 2 4 6 2 6 7 1 3 4 2 4 4
10 11 14 17 20 22 25 28 29 27 27 10 3 2 10 12 3 2 2 4 5 3 5 3 4 3 3 5 5 4 6 4 9 5 6 2 3 6 10 6 4 4 7 7 4 4 3
10 12 14 16 19 22 26 28 30 25 20 6 2 2 7 6 3 3 5 5 4 7 6 5 4 4 4 3 5 4 4 6 15 11 6 6 3 4 8 4 2 3 3 4 1 3 5
10 11 13 16 18 22 26 29 32 26 17 4 3 3 4 4 2 4 3 4 6 7 4 5 4 5 6 4 3 6 8 4 14 13 23 6 4 6 10 4 3 7 6 7 3 2 3
9 11 13 15 18 21 25 29 32 27 16 3 4 1 2 3 4 4 4 5 5 8 6 7 4 9 8 5 6 4 7 13 8 13 8 6 6 5 8 7 5 12 13 11 9 7 8
8 11 12 14 17 20 23 26 30 31 11 11 3 3 4 2 3 3 8 6 7 6 3 3 7 9 5 5 11 18 10 3 7 3 8 7 6 11 15 7 10 16 14 13 12 11 13
8 10 11 13 15 17 19 22 25 30 18 8 6 3 3 4 3 3 2 4 4 6 5 5 9 8 5 7 5 10 13 14 17 21 19 9 4 3 13 4 8 9 7 6 11 13 3
7 8 10 12 13 15 16 18 19 22 22 12 6 2 3 1 2 1 2 2 3 6 6 7 6 5 5 11 8 8 10 18 19 19 16 12 9 7 6 3 7 7 11 15 16 13 14
7 8 9 10 12 13 14 14 14 16 16 14 11 4 2 0 1 2 5 3 5 6 3 4 2 5 10 5 4 6 6 4 5 2 9 10 11 6 4 8 4 4 10 8 6 10 13
6 7 8 9 10 12 11 12 12 12 13 10 12 7 4 3 4 2 2 2 2 2 5 5 6 11 3 3 2 4 3 4 5 10 8 12 5 6 1 5 6 6 9 16 8 4 14
6 6 6 7 8 10 9 11 12 11 11 8 5 5 2 2 3 4 2 3 1 1 3 5 6 7 2 2 3 2 3 2 3 5 6 6 4 4 6 4 5 10 10 7 1 4 13
5 4 6 7 6 8 9 9 10 10 10 8 3 3 1 2 4 4 5 4 2 2 2 4 5 2 3 2 2 4 2 3 3 4 4 4 4 3 3 4 2 18 6 5 5 11 14
3 3 5 6 5 7 7 9 10 9 8 9 1 3 3 3 5 9 19 19 17 18 3 2 3 2 3 2 2 3 3 2 2 2 5 1 4 3 2 2 8 11 11 9 11 11 13
Wind_Direction
58 52 49 37 28 25 23 19 13 8 6 360 359 357 355 354 353 353 350 339 335 327 317 309 312 321 11 50 255 195 178 14 12 22 34 27 49 22 24 327 340 198 278 290 277 287 265
60 47 31 30 27 25 20 13 8 3 360 357 354 353 352 350 349 348 346 337 334 326 317 301 296 322 40 254 164 183 182 51 38 32 22 43 80 103 335 284 186 315 293 280 278 261 250
43 42 39 34 25 20 14 6 3 0 357 353 350 347 345 345 345 345 340 333 331 330 326 288 221 119 359 234 241 178 182 139 358 36 81 65 84 87 40 302 334 297 316 319 228 243 234
46 43 34 26 23 16 8 2 0 359 355 351 346 342 339 339 340 340 337 330 327 330 332 185 152 146 234 220 203 211 201 198 119 110 104 71 70 112 168 306 334 308 75 344 274 153 241
47 40 32 26 17 14 9 5 1 357 353 348 343 339 335 336 338 338 334 328 325 344 72 130 132 123 284 179 206 242 215 257 155 110 77 129 106 147 90 81 357 338 248 223 303 202 132
48 35 30 23 18 14 10 4 0 356 351 348 346 341 335 335 335 338 335 333 356 105 98 163 244 27 291 249 184 173 191 202 156 94 6 48 58 91 37 115 226 214 231 250 233 237 196
41 40 29 22 17 13 7 2 359 355 351 348 346 342 337 335 335 345 341 340 16 6 81 222 326 283 146 123 127 135 147 142 50 61 278 262 50 222 214 205 209 227 221 245 249 232 208
51 41 31 22 16 11 6 1 358 354 350 347 344 340 337 338 339 357 10 59 50 305 311 304 256 283 268 166 68 221 168 139 140 237 147 17 243 242 234 215 223 234 262 265 280 241 185
46 35 29 21 15 11 6 1 358 354 350 346 342 341 338 341 32 42 64 43 359 333 305 310 254 159 189 167 219 249 151 164 193 225 201 186 234 58 183 226 218 225 216 249 230 327 272
47 37 29 22 17 11 6 0 357 353 349 346 344 345 346 359 119 44 63 4 347 342 44 272 211 278 113 119 218 197 184 183 240 236 215 233 265 220 226 253 177 257 213 230 227 67 245
46 40 32 23 15 9 4 359 355 351 348 347 345 355 6 35 83 79 337 338 334 35 19 290 188 213 135 179 139 221 161 124 229 225 120 251 246 222 221 227 166 235 169 198 192 192 41
50 37 27 19 12 7 2 357 353 350 350 352 1 11 17 7 42 34 335 326 126 44 263 326 54 357 304 201 232 103 164 38 255 283 225 246 293 213 222 228 200 113 274 67 58 114 267
45 34 23 16 11 6 3 360 355 351 350 356 12 35 38 34 324 326 339 72 37 126 290 342 351 339 312 232 233 180 174 186 203 349 274 311 231 249 185 254 230 160 85 300 321 345 234
44 30 26 15 13 9 3 360 356 352 353 356 31 40 26 10 346 339 59 55 143 278 346 358 337 302 229 357 251 191 197 244 235 210 304 209 310 187 176 199 201 189 183 179 236 210 256
41 28 24 21 13 8 3 360 357 354 357 356 9 355 13 357 356 7 73 71 220 292 333 347 330 337 307 3 6 359 221 230 234 172 185 191 264 244 206 238 156 198 191 217 166 90 48
40 31 26 20 14 8 3 0 357 354 2 357 65 45 12 0 357 0 73 239 320 29 348 3 269 336 303 335 348 352 300 286 296 91 157 261 277 216 244 240 244 193 190 106 347 207 247
45 43 29 21 14 7 5 4 360 357 2 14 59 56 0 352 339 46 116 225 326 2 21 352 300 300 291 314 250 253 261 319 3 314 325 290 184 277 111 198 207 169 242 225 184 160 210
55 41 32 19 15 14 10 9 6 4 360 17 57 53 353 349 60 43 67 330 333 355 20 330 337 308 318 332 289 267 246 345 345 314 323 344 257 247 234 248 251 218 219 185 182 219 243
59 42 26 27 23 16 14 10 8 10 10 353 55 298 353 10 80 22 333 344 351 9 18 347 320 33 360 295 313 274 332 20 4 357 14 334 299 314 315 353 308 237 241 220 181 27 202
54 45 37 29 25 21 17 14 11 10 12 67 71 30 341 33 23 87 23 323 343 20 83 345 312 36 355 329 300 307 326 348 335 344 326 301 240 212 256 260 20 292 299 328 294 208 245
57 53 40 32 30 24 22 18 16 12 18 81 33 64 190 353 360 30 6 14 23 15 5 7 28 40 3 300 313 262 331 322 311 310 337 2 263 220 265 279 271 274 285 286 229 235 228
67 52 46 36 31 28 25 22 18 20 29 68 80 55 4 13 340 55 6 22 15 351 297 347 4 331 312 286 284 293 281 250 258 311 339 321 274 328 292 277 270 276 273 261 257 251 251
73 61 48 38 31 27 27 26 25 30 48 73 34 46 101 342 4 56 66 326 335 341 299 20 332 320 309 313 294 269 265 266 256 261 262 250 272 292 270 332 341 298 326 290 72 36 10
75 56 49 40 33 29 28 28 29 33 50 75 47 63 65 43 72 98 291 290 330 332 292 296 272 284 313 305 284 274 264 261 264 261 248 240 214 221 272 231 236 137 42 63 77 45 28
78 62 48 36 34 30 30 29 28 32 39 63 52 68 88 135 302 312 331 317 317 317 293 268 303 289 312 305 300 304 288 318 325 84 32 252 231 245 219 203 262 55 357 340 318 46 11
75 60 48 41 30 27 30 29 26 29 31 77 70 62 87 118 233 127 264 278 280 298 312 276 285 295 285 257 255 270 302 291 307 334 354 24 209 224 225 225 222 355 318 325 164 70 20
78 59 37 25 28 22 27 25 26 25 23 50 65 79 137 134 266 137 225 241 232 232 256 286 325 329 328 296 283 260 266 304 298 326 335 355 12 311 286 287 114 338 346 322 26 36 354
69 48 29 25 19 17 14 14 12 11 7 9 33 93 152 185 269 215 210 201 253 184 219 308 347 316 331 333 316 352 267 286 331 291 320 18 352 12 351 303 244 359 33 53 351 343 340
68 38 21 12 5 4 356 4 4 359 351 338 272 287 266 221 244 294 278 269 253 258 173 235 219 330 264 307 359 291 309 328 288 286 343 3 1 307 221 20 26 53 67 44 2 328 332
Height
850 849 847 846 844 841 839 835 832 830 828 825 821 818 816 813 810 807 804 802 800 797 796 795 794 792 793 794 791 787 788 789 789 788 788 788 790 793 795 796 792 793 788 786 783 784 783
852 850 848 847 844 842 839 836 834 830 828 825 821 818 815 812 809 806 803 800 797 795 793 792 793 793 793 797 787 787 788 789 789 789 789 790 792 792 795 795 795 792 791 789 784 781 779
853 851 849 847 845 842 840 837 834 831 827 824 821 817 814 811 808 805 802 798 795 793 792 791 791 792 794 791 787 787 787 788 789 790 790 791 791 793 795 796 793 791 795 787 781 779 780
853 852 850 847 845 843 840 837 834 830 827 823 819 816 813 810 806 803 799 796 794 792 791 791 791 792 791 786 786 786 787 787 788 788 789 791 791 793 795 794 792 794 796 798 774 778 775
854 852 850 848 846 843 840 837 833 830 826 822 818 814 811 808 805 801 797 794 792 791 790 791 792 792 791 786 786 786 789 789 789 790 790 790 790 793 793 800 805 800 804 800 787 776 777
854 853 851 848 846 843 840 837 833 829 825 820 816 813 810 807 803 800 796 792 791 791 792 792 793 796 789 786 785 786 787 789 790 790 792 792 795 800 804 806 807 798 799 793 791 776 780
856 854 852 850 847 843 840 837 833 829 824 819 815 811 808 805 802 799 794 792 794 795 791 786 788 786 784 785 786 787 788 789 790 792 797 795 801 800 791 793 784 783 789 793 783 773 777
857 855 853 850 848 845 841 837 833 829 823 818 814 810 806 803 801 799 797 798 802 803 800 788 787 787 784 784 786 786 788 792 794 798 796 800 802 784 783 785 789 789 789 791 782 772 774
858 856 854 852 849 845 842 838 833 828 823 817 812 808 804 801 800 801 802 805 804 804 804 790 784 783 784 785 786 786 787 791 794 795 795 800 781 777 777 779 783 787 792 786 782 774 774
859 857 855 852 849 846 842 837 832 827 822 816 811 807 803 800 802 802 805 806 805 805 815 790 786 784 784 784 787 782 784 789 791 792 793 794 779 779 781 782 783 790 774 774 774 783 792
860 858 855 852 849 846 841 836 831 827 821 815 810 806 804 799 801 803 807 806 806 807 839 786 787 783 783 786 786 785 784 785 790 786 789 786 775 778 780 774 774 773 765 770 771 781 787
860 858 856 853 849 844 840 836 830 825 819 814 810 808 805 805 803 804 804 803 805 826 836 788 787 786 787 786 784 785 786 786 786 788 787 783 773 772 770 763 766 763 767 772 782 790 806
861 858 856 853 849 844 840 835 829 824 818 813 811 809 807 806 806 804 802 804 828 842 792 796 791 786 786 784 784 787 789 792 793 797 793 782 774 764 761 766 763 765 774 790 792 799 782
861 859 856 853 849 845 840 835 829 823 817 812 811 810 810 809 806 803 802 813 821 806 798 799 796 793 790 779 780 784 785 790 784 785 795 803 783 767 761 762 763 771 775 782 774 791 775
861 859 856 853 849 845 840 835 829 822 816 812 811 811 810 809 807 804 809 840 823 807 807 807 798 796 792 785 786 785 785 785 777 780 788 794 780 759 763 758 759 762 774 760 765 780 803
861 859 857 853 849 846 841 835 828 822 816 811 811 811 811 809 808 807 818 823 813 810 809 807 809 800 801 800 797 793 787 776 775 776 775 774 780 761 757 759 757 760 757 769 773 767 772
862 860 858 855 851 846 841 835 829 821 816 811 811 814 812 810 808 814 830 823 814 813 813 814 811 810 806 808 800 798 789 782 787 783 779 773 777 765 761 764 761 767 764 761 761 767 764
863 860 858 855 852 846 841 835 829 822 815 811 813 823 813 809 819 828 827 822 816 815 816 816 816 814 814 815 814 802 795 790 796 791 785 781 782 785 768 754 751 751 753 755 760 757 766
863 861 860 856 852 849 841 836 831 824 819 817 825 825 815 811 832 838 832 826 822 822 822 820 821 822 818 819 820 807 799 803 803 797 797 791 789 794 769 761 752 751 748 748 749 755 757
864 861 860 858 854 849 843 837 831 824 820 820 826 835 831 827 836 837 841 837 831 828 828 831 823 825 831 828 820 818 814 808 811 806 795 789 790 788 778 768 771 768 757 754 750 764 752
865 863 860 860 856 852 846 840 833 827 823 822 833 847 848 853 843 844 843 844 843 844 838 836 831 841 842 840 837 825 825 821 812 808 805 800 794 787 779 775 772 766 762 757 758 754 753
866 863 863 861 857 854 850 845 841 831 827 829 845 850 851 854 848 846 853 856 850 850 844 843 848 846 845 844 838 832 832 831 827 815 818 809 797 788 782 775 772 765 759 756 751 748 739
866 865 864 862 859 857 853 850 846 840 832 839 847 848 849 857 856 854 862 859 852 853 844 843 846 844 842 837 835 832 827 822 816 811 808 813 808 800 787 775 774 770 774 760 771 775 766
866 866 864 862 861 859 856 854 852 849 845 846 850 850 854 859 857 859 858 857 855 854 853 847 843 842 836 832 829 824 822 810 804 801 801 803 805 801 794 782 802 779 779 780 788 793 790
867 866 865 864 862 861 859 858 856 854 852 850 850 852 858 862 859 855 857 857 855 853 850 845 839 838 834 831 831 824 815 805 795 798 797 797 801 797 791 785 773 785 787 789 795 802 794
866 866 865 864 864 862 860 860 859 856 854 853 853 855 857 866 860 854 858 856 860 859 855 844 838 834 832 829 827 824 822 816 807 804 796 790 801 801 790 788 771 804 790 780 779 802 805
865 866 866 864 864 863 862 861 861 859 856 856 856 856 857 864 855 854 858 857 854 854 856 849 844 838 832 831 821 822 820 814 818 809 805 799 801 799 792 782 796 806 793 781 784 815 813
865 866 866 865 864 864 863 862 861 860 858 857 856 855 856 859 852 849 850 852 853 852 854 846 848 842 841 837 826 827 832 824 822 810 801 805 807 811 811 804 787 805 796 806 828 824 818
864 865 865 864 864 863 863 861 860 859 858 856 855 854 854 855 852 848 845 845 844 843 846 846 845 844 838 845 834 831 823 827 826 822 808 810 813 812 808 805 825 823 826 829 831 828 822